This is the latest recevied weather packets stored in our database for station/object OE6PLD-13. If no packets are shown the sender has not sent any weather packets the latest 10 day(s).
| Time | Temp. | Humidity | Pressure | Rain* | Wind** | Luminosity | Snow |
|---|---|---|---|---|---|---|---|
| 1777729377 | 25.56° C | 32% | 1012.1 hPa | 0.76 mm | - | 393 W/m² | - |
| 1777729193 | 25.56° C | 31% | 1012.1 hPa | 0.76 mm | - | 386 W/m² | - |
| 1777729010 | 25° C | 32% | 1012.3 hPa | 0.76 mm | - | 387 W/m² | - |
| 1777728827 | 26.11° C | 30% | 1012.2 hPa | 0.76 mm | - | 403 W/m² | - |
| 1777728643 | 25.56° C | 31% | 1012.2 hPa | 0.76 mm | - | 407 W/m² | - |
| 1777728460 | 25° C | 32% | 1012.3 hPa | 0.76 mm | - | 405 W/m² | - |
| 1777728277 | 25.56° C | 32% | 1012.2 hPa | 0.76 mm | - | 403 W/m² | - |
| 1777728093 | 25.56° C | 31% | 1012.2 hPa | 0.76 mm | - | 407 W/m² | - |
| 1777727910 | 25.56° C | 30% | 1012.3 hPa | 0.76 mm | - | 401 W/m² | - |
| 1777727726 | 26.11° C | 30% | 1012.1 hPa | 0.76 mm | - | 401 W/m² | - |
| 1777727543 | 25.56° C | 30% | 1012.2 hPa | 0.76 mm | - | 422 W/m² | - |
| 1777727360 | 25.56° C | 31% | 1012.4 hPa | 0.76 mm | - | 444 W/m² | - |
| 1777727177 | 25° C | 32% | 1012.4 hPa | 0.76 mm | - | 468 W/m² | - |
| 1777726993 | 25.56° C | 30% | 1012.5 hPa | 0.76 mm | - | 494 W/m² | - |
| 1777726810 | 25° C | 31% | 1012.4 hPa | 0.76 mm | - | 507 W/m² | - |
| 1777726627 | 24.44° C | 33% | 1012.4 hPa | 0.76 mm | - | 509 W/m² | - |
| 1777726260 | 25.56° C | 31% | 1012.4 hPa | 0.76 mm | - | 520 W/m² | - |
| 1777726076 | 25.56° C | 31% | 1012.5 hPa | 0.76 mm | - | 527 W/m² | - |
| 1777725893 | 25.56° C | 31% | 1012.5 hPa | 0.76 mm | - | 530 W/m² | - |
| 1777725710 | 25.56° C | 33% | 1012.5 hPa | 0.76 mm | - | 510 W/m² | - |
| 1777725526 | 25.56° C | 31% | 1012.7 hPa | 0.76 mm | - | 498 W/m² | - |
| 1777725343 | 25° C | 31% | 1012.9 hPa | 0.76 mm | - | 489 W/m² | - |
| 1777725160 | 23.89° C | 31% | 1012.8 hPa | 0.76 mm | - | 471 W/m² | - |
| 1777724976 | 24.44° C | 30% | 1013 hPa | 0.76 mm | - | 460 W/m² | - |
| 1777724793 | 24.44° C | 31% | 1012.9 hPa | 0.76 mm | - | 452 W/m² | - |
* Rain latest hour (hover to see other rain measurements)
** Current wind speed in m/s (hover to see current wind gust speed)